Hourly Data Report for February 23, 2021

TORONTO CITY
ONTARIO
Current Station Operator: ECCC - MSC

43°40'00.000" N
79°24'00.000" W
112.50 m
6158355
71508
XTO

Download Data

Hourly Data (February 2021)
Hourly Data Report for February 23, 2021
TIME
LST
Temp Definition
°C
Dew Point Definition
°C
Rel Hum Definition
%
Precip. Amount Definition
mm

Wind Dir Definition
10's deg

Wind Spd Definition
km/h
Visibility Definition
km
Stn Press Definition
kPa
Hmdx Definition


Wind Chill Definition


Weather Definition


00:00 0.9 -3.0 75 0.0       98.99     LegendNANA
01:00 0.3 -3.9 73 0.0       98.98     LegendNANA
02:00 0.4 -3.5 75 0.0       98.92     LegendNANA
03:00 1.0 -2.8 76 0.0       98.78     LegendNANA
04:00 1.4 -2.1 77 0.0       98.66     LegendNANA
05:00 1.6 -1.7 78 0.0       98.55     LegendNANA
06:00 1.4 -1.8 79 0.0       98.46     LegendNANA
07:00 0.9 -1.0 87 0.1       98.39     LegendNANA
08:00 0.9 -0.3 92 0.3       98.38     LegendNANA
09:00 1.3 0.1 92 0.1       98.36     LegendNANA
10:00 2.1 0.0 86 0.0       98.36     LegendNANA
11:00 3.6 -0.4 75 0.0       98.40     LegendNANA
12:00 4.0 -1.1 69 0.0       98.52     LegendNANA
13:00 3.9 -1.0 71 0.0       98.60     LegendNANA
14:00 4.6 -0.7 69 0.0       98.69     LegendNANA
15:00 4.7 -0.3 70 0.0       98.84     LegendNANA
16:00 5.2 0.0 69 0.0       98.97     LegendNANA
17:00 5.2 -0.3 68 0.0       99.11     LegendNANA
18:00 5.0 -0.7 67 0.0       99.19     LegendNANA
19:00 4.7 -0.7 68 0.0       99.38     LegendNANA
20:00 4.1 -0.3 73 0.0       99.50     LegendNANA
21:00 4.0 -0.3 73 0.0       99.60     LegendNANA
22:00 3.6 -0.6 74 0.0       99.71     LegendNANA
23:00 3.2 -0.8 75 0.0       99.77     LegendNANA

Notes on Data Quality.

Legend

  • E = Estimated
  • M = Missing
  • NA = Not Available*
  • [empty] = Indicates an unobserved value
Date modified: